This demonstration page uses our WeatherBlox Daily Observations layout. Learn more.

38.88101, -77.10428

Hourly Observations for April 8, 2020

Temp ( °F °C ) Dew Point ( °F °C ) Humidity (%) Winds ( mph kmh ) Pressure ( in mb ) Visibility ( mi km ) Precip ( " mm )
12:52 am 00:52 Partly Cloudy 58 14.4 56 13.3 93 93 S 6 9 29.66 1004 10 16.0934 0 0
1:52 am 01:52 Mostly Cloudy 57 13.9 56 13.3 96 96 S 7 11 29.61 1003 10 16.0934 0 0
2:52 am 02:52 Mostly Cloudy 57 13.9 56 13.3 96 96 SSW 8 13 29.57 1001 9 14.48406 0 0
3:52 am 03:52 Mostly Cloudy 56 13.3 55 12.8 97 97 SSW 6 9 29.56 1001 9 14.48406 0 0
4:52 am 04:52 Cloudy 60 15.6 54 12.2 80 80 NNW 14 22 29.62 1003 10 16.0934 0.001 0.001
5:52 am 05:52 Cloudy with Light Rain 58 14.4 54 12.2 87 87 WSW 7 11 29.62 1003 10 16.0934 0.001 0.001
6:52 am 06:52 Cloudy with Light Rain 58 14.4 54 12.2 87 87 SW 5 7 29.62 1003 10 16.0934 0.03 0.762
7:52 am 07:52 Partly Cloudy 59 15 54 12.2 83 83 S 7 11 29.59 1002 10 16.0934 0.001 0.001
8:52 am 08:52 Cloudy 60 15.6 55 12.8 84 84 SSW 5 7 29.61 1003 10 16.0934 0 0
9:52 am 09:52 Cloudy 62 16.7 56 13.3 80 80 WSW 5 7 29.62 1003 10 16.0934 0 0
10:52 am 10:52 Partly Cloudy 66 18.9 56 13.3 70 70 SW 6 9 29.62 1003 10 16.0934 0 0
11:52 am 11:52 Mostly Sunny 73 22.8 56 13.3 55 55 WNW 6 9 29.61 1003 10 16.0934 0 0
12:52 pm 12:52 Partly Cloudy 74 23.3 55 12.8 52 52 WNW 17 28 29.59 1002 10 16.0934 0 0
1:52 pm 13:52 Partly Cloudy 77 25 56 13.3 48 48 NNW 15 24 29.6 1002 10 16.0934 0 0
2:52 pm 14:52 Partly Cloudy 77 25 56 13.3 48 48 NNW 12 19 29.58 1002 10 16.0934 0 0
3:52 pm 15:52 Mostly Cloudy 77 25 55 12.8 47 47 NNW 16 26 29.57 1002 10 16.0934 0 0
4:52 pm 16:52 Partly Cloudy 78 25.6 50 10 37 37 NW 18 30 29.58 1002 10 16.0934 0 0
5:52 pm 17:52 Mostly Cloudy 75 23.9 51 10.6 43 43 NNW 15 24 29.59 1002 10 16.0934 0 0
6:52 pm 18:52 Partly Cloudy 74 23.3 50 10 43 43 NW 9 15 29.61 1003 10 16.0934 0 0
7:52 pm 19:52 Partly Cloudy 71 21.7 48 8.9 44 44 NW 5 7 29.61 1003 10 16.0934 0 0
8:52 pm 20:52 Clear 67 19.4 53 11.7 61 61 Calm 29.63 1003 10 16.0934 0 0
9:52 pm 21:52 Mostly Clear 69 20.6 47 8.3 45 45 NW 5 7 29.64 1004 10 16.0934 0 0
10:52 pm 22:52 Clear 67 19.4 49 9.4 53 53 N 3 6 29.62 1003 10 16.0934 0 0
11:52 pm 23:52 Mostly Clear 60 15.6 54 12.2 80 80 NNW 3 6 29.59 1002 10 16.0934 0 0

Powered by AerisWeather